[[{"header":{"parameterUnit":"m.s-1","parameterCategory":1,"la1":30.2992,"la2":30.254,"lo1":-89.0895,"lo2":-89.0443,"dy":0.0025,"dx":0.0025,"nx":19,"ny":19,"refTime":"2026-05-19T09:00:00:Z","depth":0,"parameterNumber":2,"parameterNumberName":"U-component_of_WINDS"},"data":[0,0,0,-4.2554,-4.2557,-4.266,-4.266,-4.2798,-4.2799,0,0,0,0,0,0,0,0,0,0,0,-4.2528,-4.2529,-4.2554,-4.2557,-4.266,-4.266,-4.2797,-4.2799,0,0,0,0,0,0,0,0,0,0,0,-4.2527,-4.2529,-4.253,-4.2557,-4.266,-4.266,-4.2797,-4.2717,0,0,0,0,0,0,0,0,0,0,-4.2616,-4.2596,-4.2528,-4.253,-4.2558,-4.266,-4.266,-4.2713,-4.2722,-4.2754,0,-4.2784,0,-4.2794,-4.2809,-4.2809,0,0,0,-4.2553,-4.2589,-4.2613,-4.253,-4.2559,-4.266,-4.2612,-4.2718,-4.2728,-4.2765,-4.2786,-4.2791,-4.2796,-4.281,-4.281,-4.3006,-4.3007,0,0,-4.2547,-4.2549,-4.2606,-4.262,-4.2605,-4.2609,-4.2616,-4.2724,-4.2746,-4.2786,-4.2794,-4.2798,-4.2811,-4.2812,-4.3005,-4.3006,0,0,0,-4.2533,-4.2545,-4.2566,-4.2614,-4.2632,-4.2612,-4.262,-4.2741,-4.2748,-4.2795,-4.28,-4.2811,-4.2813,-4.3004,-4.3005,-4.3059,0,0,0,-4.253,-4.2537,-4.2564,-4.2566,-4.2631,-4.2688,-4.2634,-4.274,-4.2752,-4.2799,-4.2811,-4.2815,-4.3003,-4.3005,-4.3055,-4.3084,0,0,0,-4.252,-4.2535,-4.2552,-4.2565,-4.261,-4.2686,-4.2699,-4.2743,-4.2756,-4.2809,-4.2815,-4.3002,-4.3004,-4.3052,-4.3078,-4.3134,0,0,0,-4.2509,-4.2599,-4.2553,-4.2655,-4.2609,-4.272,-4.2699,-4.2781,-4.2834,-4.2812,-4.3003,-4.3005,-4.3051,-4.3074,-4.3131,-4.3181,-4.3202,0,0,-4.2623,-4.2613,-4.2673,-4.2635,-4.2754,-4.2704,-4.2831,-4.2877,-4.2881,-4.2964,-4.2969,-4.3057,-4.3078,-4.3134,-4.3327,-4.3344,0,0,0,-4.2709,-4.2752,-4.2783,-4.2834,-4.2872,-4.2907,-4.2934,-4.2952,-4.3022,-4.2924,-4.3093,-4.3106,-4.3139,-4.3162,-4.3177,-4.3204,-4.3017,-4.3017,-4.3017,-4.287,-4.2871,-4.297,-4.2983,-4.3032,-4.306,-4.3099,-4.3127,-4.3113,-4.3153,-4.3176,-4.3294,-4.3322,-4.3333,-4.3361,-4.3205,-4.3205,-4.3205,-4.3205,-4.3035,-4.3095,-4.3075,-4.3164,-4.3163,-4.3237,-4.3267,-4.3255,-4.3323,-4.3276,-4.3305,-4.3252,-4.3352,-4.3376,-4.3209,-4.3209,-4.3208,-4.3208,-4.3208,-4.3139,-4.3168,-4.3188,-4.3261,-4.3317,-4.3327,-4.3393,-4.3391,-4.3389,-4.3418,-4.3442,-4.3441,-4.3438,-4.343,-4.3431,-4.3431,-4.3431,-4.3432,-4.3432,-4.3238,-4.326,-4.3316,-4.3364,-4.3396,-4.3438,-4.3467,-4.3497,-4.3531,-4.3524,-4.3524,-4.3505,-4.3362,-4.3325,-4.3438,-4.3437,-4.3436,-4.3436,-4.3435,-4.3402,-4.3365,-4.3451,-4.3483,-4.3539,-4.3594,-4.3591,-4.3654,-4.368,-4.3712,-4.3688,-4.3583,-4.3572,-4.356,-4.3529,-4.3688,-4.3688,-4.3688,-4.3688,-4.3488,-4.3483,-4.357,-4.3621,-4.3671,-4.3677,-4.3774,-4.3797,-4.3815,-4.383,-4.3807,-4.3767,-4.3756,-4.3751,-4.3735,-4.3706,-4.3907,-4.3907,-4.3907,-4.3587,-4.3587,-4.367,-4.3688,-4.3732,-4.3769,-4.3859,-4.3917,-4.393,-4.3916,-4.3842,-4.3832,-4.3767,-4.3747,-4.3728,-4.3704,-4.365,0,0]},{"header":{"parameterUnit":"m.s-1","parameterCategory":1,"la1":30.2992,"la2":30.254,"lo1":-89.0895,"lo2":-89.0443,"dy":0.0025,"dx":0.0025,"nx":19,"ny":19,"refTime":"2026-05-19T09:00:00:Z","depth":0,"parameterNumber":3,"parameterNumberName":"V-component_of_WINDS"},"data":[0,0,0,3.981,3.981,3.9844,3.9844,3.9898,3.9898,0,0,0,0,0,0,0,0,0,0,0,3.9807,3.9808,3.9809,3.9811,3.9844,3.9844,3.9898,3.9898,0,0,0,0,0,0,0,0,0,0,0,3.9807,3.9808,3.9809,3.9811,3.9844,3.9844,3.9897,3.9868,0,0,0,0,0,0,0,0,0,0,3.9834,3.984,3.9808,3.9809,3.9811,3.9844,3.9844,3.9867,3.987,3.9888,0,3.9907,0,3.9903,3.9903,3.9903,0,0,0,3.9804,3.9837,3.9839,3.9809,3.9811,3.9844,3.9827,3.9868,3.9872,3.9893,3.9907,3.9909,3.9904,3.9903,3.9904,4.0029,4.003,0,0,3.9803,3.9817,3.9836,3.9842,3.9838,3.9826,3.9828,3.987,3.9887,3.9907,3.991,3.9905,3.9904,3.9904,4.0028,4.0029,0,0,0,3.9801,3.9816,3.9817,3.984,3.9845,3.9827,3.983,3.9885,3.9884,3.991,3.9906,3.9904,3.9905,4.0027,4.0028,4.0085,0,0,0,3.98,3.9816,3.9817,3.9826,3.9845,3.9866,3.9844,3.9881,3.9886,3.9906,3.9904,3.9905,4.0026,4.0028,4.0082,4.011,0,0,0,3.9803,3.9816,3.9823,3.9827,3.9841,3.9865,3.9866,3.9882,3.9883,3.9903,3.9906,4.0025,4.0027,4.0078,4.0104,4.0147,0,0,0,3.9809,3.9873,3.9824,3.9894,3.9841,3.99,3.9866,3.9908,3.9932,3.9904,4.0026,4.0028,4.0077,4.0101,4.0144,4.0185,4.0204,0,0,3.9898,3.9884,3.9924,3.9882,3.9953,3.9894,3.9973,3.9981,3.9969,4.0009,4.0012,4.0083,4.0104,4.0146,4.0305,4.032,0,0,0,3.9957,3.9986,4.0002,4.0026,4.0034,4.0042,4.0036,4.0039,4.0073,3.9993,4.0109,4.0122,4.0146,4.0165,4.0178,4.0197,4.0038,4.0038,4.0037,4.0103,4.0085,4.015,4.0137,4.016,4.0154,4.0171,4.0173,4.0148,4.0176,4.0187,4.0286,4.0309,4.0319,4.034,4.0208,4.0209,4.0209,4.0209,4.0231,4.0269,4.0235,4.0285,4.0266,4.0307,4.0304,4.0285,4.032,4.0276,4.0296,4.0249,4.0336,4.0353,4.0213,4.0212,4.0212,4.0211,4.0211,4.0325,4.034,4.0343,4.0376,4.0403,4.0387,4.0423,4.0404,4.0386,4.0406,4.0416,4.0415,4.0412,4.0412,4.0413,4.0413,4.0413,4.0414,4.0414,4.042,4.0422,4.0455,4.047,4.0483,4.0497,4.0492,4.0504,4.0512,4.0495,4.0495,4.0467,4.0348,4.0319,4.0419,4.0418,4.0418,4.0417,4.0417,4.0556,4.0523,4.0574,4.0587,4.0603,4.0631,4.0606,4.0633,4.064,4.0658,4.0626,4.0541,4.0526,4.0515,4.0491,4.063,4.063,4.063,4.063,4.0635,4.0626,4.0674,4.0696,4.0716,4.0699,4.0757,4.0754,4.0745,4.0748,4.0725,4.0691,4.0681,4.0671,4.0657,4.0634,4.0806,4.0807,4.0807,4.0718,4.0709,4.0763,4.0754,4.0765,4.0774,4.0828,4.0855,4.0837,4.0814,4.075,4.0742,4.0687,4.067,4.0644,4.0623,4.058,0,0]}]]